Location: Newark
(15.4608°S, 41.1635°W)
Time: 21:43:32
(UTC+00:00)

Transit 4A - Pass Details

Date: 09 August 2021
Orbit: 871 x 974 km, 66.8° (Epoch: 17 September)

Event Time Altitude Azimuth Distance (km) Brightness Sun altitude
Rises 21:44:54 0° 185° (S) 3,633 10.9 -16.9°
Reaches altitude 10° 21:47:50 10° 174° (S) 2,667 10.1 -17.6°
Enters shadow 21:52:51 30° 121° (ESE) 1,614 8.6 -18.8°
